Вернуться в каталог

ARIANE 5 DEB

SYLDA

АктивенHEO
NORAD 41750·DEBRIS·🇫🇷 France

Запущен Aug 24, 2016 с Guiana Space Centre

Loading…

Ближайшие Пролёты (ближайшие 24 часа)

TLE

СвежийSource: Space-Track

Эпоха: Sep 14, 2026, 12:59 UTC

1 41750U 16053D   26257.54102040  .00007417  00000-0  25856-2 0  9997
2 41750   6.0709 100.6979 5764855 201.4019 118.8346  4.35903694112187

Отслеживайте ARIANE 5 DEB в реальном времени с AllMySat

Download on the App Store